Regional Weather Roundup
Issued by NWS Sioux Falls, SD

Home | Current Version | Previous Version | Text Only | Print | Product List | Glossary Off
Versions: 1 2 3 4 5 6 7 8 9 10 11 12 13 14 15 16 17 18 19 20 21 22 23 24 25 26 27 28 29 30 31 32 33 34 35 36 37 38 39 40 41 42 43 44 45 46 47 48 49 50

000
ASUS43 KFSD 181210
RWRFSD

WEATHER ROUNDUP FOR SE SOUTH DAKOTA/SW MINNESOTA/NW IOWA
NATIONAL WEATHER SERVICE SIOUX FALLS SD
600 AM CST WED JAN 18 2017

NOTE: "FAIR" INDICATES FEW OR NO CLOUDS BELOW 12,000 FEET WITH NO
SIGNIFICANT WEATHER AND OR OBSTRUCTIONS TO VISIBILITY.


SDZ038>040-050-052>070-181300-
SOUTHEAST SOUTH DAKOTA

CITY           SKY/WX    TMP DP  RH WIND       PRES   REMARKS
BROOKINGS      CLOUDY    22  20  92 SE7       29.87S WCI  13
CHAMBERLAIN    CLOUDY    17  15  91 S3        29.86F
6HR MIN TEMP:  16; 6HR MAX TEMP:  25;

HURON          CLOUDY    18  16  92 S6        29.86F WCI  10
6HR MIN TEMP:  18; 6HR MAX TEMP:  24;

MADISON          N/A     27  27 100 SW12        N/A  WCI  16
MITCHELL       CLOUDY    23  20  88 S6        29.89F WCI  16
6HR MIN TEMP:  18; 6HR MAX TEMP:  26;

SIOUX FALLS    CLOUDY    23  22  96 N3        29.90F
6HR MIN TEMP:  23; 6HR MAX TEMP:  31;

WINNER         FAIR      30  19  63 S6        29.86F WCI  24
YANKTON        CLOUDY    30  25  80 CALM      29.91S
$$

MNZ071-072-080-081-089-090-097-098-181300-
SOUTHWEST MINNESOTA

CITY           SKY/WX    TMP DP  RH WIND       PRES   REMARKS
FAIRMONT       CLEAR     30  27  88 S17       29.95F WCI  18
JACKSON        CLOUDY    28  27  93 SW9       29.93R WCI  20
LUVERNE        CLOUDY    21  19  93 CALM      29.92F
MARSHALL       CLOUDY    29  25  85 SW10      29.86F WCI  20
6HR MIN TEMP:  26; 6HR MAX TEMP:  32;

MONTEVIDEO     CLOUDY    27  27 100 SW12      29.86S WCI  16
PIPESTONE      CLOUDY    25  23  93 SW9       29.89S WCI  15
REDWOOD FALLS  CLOUDY    26  22  84 S13       29.89F WCI  15
TRACY          CLOUDY    31  27  87 SW18G26   29.87F WCI  19
WINDOM         CLOUDY    28  27  93 SW8       29.92R WCI  20
WORTHINGTON    CLOUDY    28  26  92 SW16      29.92S WCI  16
$$

IAZ001>003-012>014-020>022-031-032-NEZ013-014-SDZ071-181300-
NORTHWEST IOWA

CITY           SKY/WX    TMP DP  RH WIND       PRES   REMARKS
CHEROKEE       CLOUDY    26  26  99 S3        29.96F
DENISON        CLEAR     28  28 100 S8        30.00S WCI  20
ESTHERVILLE    CLOUDY    25  25 100 S10       29.94F FOG     WCI  15
LE MARS        CLOUDY    27  25  93 S7        29.96S WCI  19
ORANGE CITY    CLOUDY    27  27 100 S3        29.92F
SHELDON        CLOUDY    28  30 100 S9        29.91F WCI  20
SIOUX CITY     CLEAR     27  24  89 SE7       29.97S WCI  19
6HR MIN TEMP:  25; 6HR MAX TEMP:  32;

SPENCER        CLOUDY    31  27  85 SW10      29.94F WCI  22
6HR MIN TEMP:  24; 6HR MAX TEMP:  31;

STORM LAKE     CLEAR     28  27  93 SW13      29.96F WCI  18
$$

ABBREVIATIONS USED IN REMARKS
   TC - TEMPERATURE IN CELSIUS
  WCI - WIND CHILL INDEX
   HX - HEAT INDEX
  VSB - VISIBILITY




USA.gov is the U.S. government's official web portal to all federal, state and local government web resources and services.